Weather in Psakoudia

Greece     40°15′32″N   23°29′51″E
temp.,
°C
wind,
m/s
gust,
m/s
humid.,
%
clouds,
%
prec.,
mm/h
press.,
hPa
HPBL,
m
13 may, thu
thu1300:00+17nne22570 0.0 100878
03:00+16nnw22551 0.0 100892
06:00+16nnw11561 0.0 100787
09:00+17se11550 0.0 1008154
12:00+18s22570 0.0 1008228
15:00+17s22631 0.0 1008249
18:00+18sse337123 0.0 1007188
21:00+18se347311 0.0 1008127
14 may, fri
fri1400:00+18ne22716 0.0 100825
03:00+18nw22670 0.0 100825
06:00+17nnw226635 0.0 100971
09:00+19sw11610 0.0 1011181
12:00+18wsw66651 0.0 1012396
15:00+19wsw45600 0.0 1011248
18:00+19sw3359100 0.0 1011168
21:00+19se45720 0.0 101177
15 may, sat
sat1500:00+18e45765 0.0 1011129
03:00+18ene447595 0.0 1011136
06:00+17ne3368100 0.0 101096
09:00+19ene3473100 0.0 1010245
12:00+19e1271100 0.0 1010253
15:00+17n446899 0.9 1009230
18:00+16ene117224 0.9 1008213
21:00+16ese1171100 1.0 100885
16 may, sun
sun1600:00+17nnw226876 0.1 1008170
03:00+17wnw23665 0.1 1008132
06:00+16nnw34654 0.0 1007132
09:00+18wnw46575 0.0 1008376
12:00+21w675613 0.0 1008366
15:00+19wsw99617 0.0 1008572
18:00+19wsw78615 0.0 1007299
21:00+19w33695 0.0 100858
17 may, mon
mon1700:00+18nw11695 0.0 100820
03:00+18nnw11670 0.0 100922
06:00+18nne22620 0.0 100938
09:00+19ese11655 0.0 101077
12:00+19s22650 0.0 1010195
15:00+18sse23700 0.0 1010184
18:00+19se23715 0.0 1010143
21:00+20ese45745 0.0 101078